Location: Maccacari
(45.1333°N, 11.1333°E)
Time: 14:27:24
(UTC+00:00)

S-56A Canister/Altair - Pass Details

Date: 26 January 2021
Orbit: 631 x 2501 km, 38.9° (Epoch: 01 March)

Event Time Altitude Azimuth Distance (km) Brightness Sun altitude
Rises 04:02:00 0° 263° (W) 2,915 - -28.2°
Reaches altitude 10° 04:04:20 10° 255° (WSW) 2,016 - -27.7°
Maximum altitude 04:08:26 36° 187° (S) 1,072 - -27.0°
Exits shadow 04:09:00 35° 171° (S) 1,114 8.3 -26.9°
Drops below altitude 10° 04:13:18 10° 121° (ESE) 2,400 10.8 -26.2°
Sets 04:16:19 0° 114° (ESE) 3,562 12.0 -25.6°
